| time (UTC) | temp F | wind direction | speed knots | gust knots | rain 1hr in | rain 24hr in | rain mn in | humidity % | barometer mb |
| 20260503212025 | 72 | 328 | 4.3 | 7.8 | 0.00 | 0.00 | 0.00 | 58 | 1011.9 |
| 20260503211538 | 72 | 342 | 5.2 | 7.8 | 0.00 | 0.00 | 0.00 | 60 | 1011.9 |
| 20260503211029 | 72 | 302 | 4.3 | 7.0 | 0.00 | 0.00 | 0.00 | 61 | 1012.0 |
| 20260503210533 | 72 | 343 | 4.3 | 7.0 | 0.00 | 0.00 | 0.00 | 60 | 1012.0 |
| 20260503210041 | 72 | 338 | 5.2 | 7.0 | 0.00 | 0.00 | 0.00 | 59 | 1012.1 |
| 20260503205533 | 72 | 304 | 5.2 | 7.0 | 0.00 | 0.00 | 0.00 | 58 | 1012.1 |
| 20260503205037 | 72 | 344 | 4.3 | 6.1 | 0.00 | 0.00 | 0.00 | 58 | 1012.2 |
| 20260503204528 | 72 | 335 | 5.2 | 6.1 | 0.00 | 0.00 | 0.00 | 59 | 1012.3 |
| 20260503204040 | 71 | 299 | 3.5 | 5.2 | 0.00 | 0.00 | 0.00 | 60 | 1012.2 |
| 20260503203543 | 71 | 309 | 3.5 | 6.1 | 0.00 | 0.00 | 0.00 | 60 | 1012.3 |
| 20260503203054 | 70 | 298 | 4.3 | 6.1 | 0.00 | 0.00 | 0.00 | 61 | 1012.3 |
| 20260503202525 | 70 | 342 | 5.2 | 6.1 | 0.00 | 0.00 | 0.00 | 61 | 1012.3 |
| 20260503202056 | 71 | 352 | 3.5 | 6.1 | 0.00 | 0.00 | 0.00 | 60 | 1012.3 |
| 20260503201544 | 70 | 285 | 4.3 | 6.1 | 0.00 | 0.00 | 0.00 | 60 | 1012.3 |
| 20260503200538 | 70 | 330 | 4.3 | 6.1 | 0.00 | 0.00 | 0.00 | 62 | 1012.5 |
| 20260503200046 | 69 | 323 | 4.3 | 5.2 | 0.00 | 0.00 | 0.00 | 62 | 1012.6 |
| 20260503195530 | 69 | 345 | 4.3 | 5.2 | 0.00 | 0.00 | 0.00 | 61 | 1012.7 |
| 20260503195042 | 69 | 337 | 4.3 | 5.2 | 0.00 | 0.00 | 0.00 | 62 | 1012.7 |
| 20260503194525 | 69 | 318 | 3.5 | 5.2 | 0.00 | 0.00 | 0.00 | 62 | 1012.8 |
| 20260503194037 | 68 | 347 | 3.5 | 5.2 | 0.00 | 0.00 | 0.00 | 64 | 1012.8 |
| 20260503193549 | 68 | 355 | 3.5 | 5.2 | 0.00 | 0.00 | 0.00 | 65 | 1012.9 |
| 20260503193040 | 67 | 330 | 3.5 | 4.3 | 0.00 | 0.00 | 0.00 | 66 | 1013.0 |
| 20260503192523 | 66 | 330 | 3.5 | 4.3 | 0.00 | 0.00 | 0.00 | 67 | 1013.1 |
| 20260503192105 | 66 | 335 | 2.6 | 5.2 | 0.00 | 0.00 | 0.00 | 68 | 1013.1 |
| 20260503191526 | 66 | 317 | 2.6 | 5.2 | 0.00 | 0.00 | 0.00 | 69 | 1013.1 |
| 20260503191038 | 66 | 330 | 3.5 | 5.2 | 0.00 | 0.00 | 0.00 | 70 | 1013.1 |
| 20260503190550 | 65 | 276 | 2.6 | 5.2 | 0.00 | 0.00 | 0.00 | 71 | 1013.3 |
| 20260503190031 | 65 | 285 | 2.6 | 6.1 | 0.00 | 0.00 | 0.00 | 72 | 1013.3 |
| 20260503185535 | 65 | 290 | 2.6 | 6.1 | 0.00 | 0.00 | 0.00 | 72 | 1013.2 |
| 20260503185027 | 65 | 315 | 2.6 | 5.2 | 0.00 | 0.00 | 0.00 | 72 | 1013.3 |
| 20260503184539 | 65 | 289 | 3.5 | 5.2 | 0.00 | 0.00 | 0.00 | 73 | 1013.3 |
| 20260503184031 | 65 | 294 | 2.6 | 6.1 | 0.00 | 0.00 | 0.00 | 74 | 1013.4 |
| 20260503183534 | 64 | 337 | 3.5 | 6.1 | 0.00 | 0.00 | 0.00 | 73 | 1013.4 |
| 20260503183027 | 65 | 306 | 4.3 | 7.8 | 0.00 | 0.00 | 0.00 | 73 | 1013.4 |
| 20260503182537 | 64 | 285 | 5.2 | 7.8 | 0.00 | 0.00 | 0.00 | 70 | 1013.5 |
| 20260503182047 | 65 | 326 | 4.3 | 8.7 | 0.00 | 0.00 | 0.00 | 69 | 1013.5 |
| 20260503181530 | 64 | 344 | 5.2 | 8.7 | 0.00 | 0.00 | 0.00 | 70 | 1013.7 |
| 20260503181040 | 64 | 324 | 5.2 | 7.8 | 0.00 | 0.00 | 0.00 | 70 | 1013.7 |
| 20260503180524 | 64 | 318 | 4.3 | 7.8 | 0.00 | 0.00 | 0.00 | 71 | 1013.8 |
| 20260503180036 | 65 | 302 | 5.2 | 7.8 | 0.00 | 0.00 | 0.00 | 71 | 1013.8 |
| 20260503175529 | 65 | 303 | 5.2 | 7.8 | 0.00 | 0.00 | 0.00 | 73 | 1013.8 |
| 20260503175032 | 65 | 304 | 5.2 | 7.8 | 0.00 | 0.00 | 0.00 | 74 | 1013.9 |
| 20260503174524 | 65 | 298 | 4.3 | 6.1 | 0.00 | 0.00 | 0.00 | 73 | 1013.9 |
| 20260503174031 | 64 | 304 | 4.3 | 7.0 | 0.00 | 0.00 | 0.00 | 73 | 1013.9 |
| 20260503173533 | 64 | 285 | 4.3 | 7.8 | 0.00 | 0.00 | 0.00 | 74 | 1014.0 |
| 20260503173025 | 64 | 344 | 4.3 | 7.8 | 0.00 | 0.00 | 0.00 | 74 | 1013.9 |
| 20260503172523 | 64 | 349 | 3.5 | 7.0 | 0.00 | 0.00 | 0.00 | 75 | 1014.0 |
| 20260503172036 | 63 | 287 | 4.3 | 6.1 | 0.00 | 0.00 | 0.00 | 75 | 1014.1 |
| 20260503171528 | 63 | 300 | 4.3 | 6.1 | 0.00 | 0.00 | 0.00 | 76 | 1014.2 |
| 20260503171100 | 62 | 298 | 3.5 | 5.2 | 0.00 | 0.00 | 0.00 | 78 | 1014.1 |
| 20260503170530 | 61 | 342 | 3.5 | 6.1 | 0.00 | 0.00 | 0.00 | 79 | 1014.2 |
| 20260503150538 | 57 | 286 | 2.6 | 4.3 | 0.00 | 0.00 | 0.00 | 86 | 1014.4 |
| 20260503131025 | 55 | 299 | 1.7 | 3.5 | 0.00 | 0.00 | 0.00 | 86 | 1013.8 |
| 20260503130537 | 55 | 279 | 0.9 | 3.5 | 0.00 | 0.00 | 0.00 | 86 | 1013.8 |
| 20260503110526 | 56 | 247 | 0.0 | 0.0 | 0.00 | 0.00 | 0.00 | 82 | 1014.0 |
| 20260503081534 | 62 | 238 | 0.9 | 2.6 | 0.00 | 0.00 | 0.00 | 65 | 1013.9 |
| 20260503081045 | 62 | 273 | 0.9 | 2.6 | 0.00 | 0.00 | 0.00 | 65 | 1013.9 |
| 20260503080557 | 62 | 265 | 1.7 | 2.6 | 0.00 | 0.00 | 0.00 | 65 | 1014.0 |
| 20260503072549 | 61 | 249 | 0.9 | 1.7 | 0.00 | 0.00 | 0.00 | 67 | 1014.0 |
| 20260503072033 | 61 | 264 | 0.9 | 1.7 | 0.00 | 0.00 | 0.00 | 68 | 1013.9 |
| 20260503071524 | 61 | 250 | 0.9 | 1.7 | 0.00 | 0.00 | 0.00 | 68 | 1013.9 |
| 20260503071028 | 61 | 249 | 0.9 | 1.7 | 0.00 | 0.00 | 0.00 | 69 | 1013.9 |
| 20260503070541 | 61 | 249 | 0.0 | 1.7 | 0.00 | 0.00 | 0.00 | 70 | 1013.9 |
| 20260503055031 | 68 | 298 | 2.6 | 7.8 | 0.00 | 0.00 | 0.00 | 49 | 1013.6 |
| 20260503054534 | 68 | 294 | 3.5 | 10.4 | 0.00 | 0.00 | 0.00 | 49 | 1013.6 |
| 20260503054026 | 68 | 296 | 5.2 | 10.4 | 0.00 | 0.00 | 0.00 | 50 | 1013.6 |
| 20260503053538 | 68 | 307 | 6.1 | 11.3 | 0.00 | 0.00 | 0.00 | 48 | 1013.6 |
| 20260503053039 | 68 | 352 | 6.1 | 11.3 | 0.00 | 0.00 | 0.00 | 49 | 1013.7 |
| 20260503052530 | 68 | 330 | 5.2 | 10.4 | 0.00 | 0.00 | 0.00 | 49 | 1013.6 |
| 20260503052043 | 68 | 295 | 5.2 | 10.4 | 0.00 | 0.00 | 0.00 | 51 | 1013.6 |
| 20260503051525 | 68 | 296 | 6.1 | 11.3 | 0.00 | 0.00 | 0.00 | 49 | 1013.6 |
| 20260503051036 | 68 | 274 | 5.2 | 11.3 | 0.00 | 0.00 | 0.00 | 50 | 1013.7 |
| 20260503050548 | 67 | 284 | 2.6 | 10.4 | 0.00 | 0.00 | 0.00 | 51 | 1013.6 |
| 20260503050039 | 67 | 299 | 5.2 | 10.4 | 0.00 | 0.00 | 0.00 | 51 | 1013.6 |
| 20260503045550 | 67 | 269 | 3.5 | 9.6 | 0.00 | 0.00 | 0.00 | 51 | 1013.5 |
| 20260503045032 | 67 | 319 | 4.3 | 10.4 | 0.00 | 0.00 | 0.00 | 53 | 1013.5 |
| 20260503044545 | 67 | 266 | 6.1 | 11.3 | 0.00 | 0.00 | 0.00 | 51 | 1013.5 |
| 20260503044024 | 67 | 336 | 7.0 | 13.0 | 0.00 | 0.00 | 0.00 | 52 | 1013.4 |
| 20260503043532 | 66 | 266 | 5.2 | 13.0 | 0.00 | 0.00 | 0.00 | 54 | 1013.4 |
| 20260503043044 | 65 | 246 | 4.3 | 9.6 | 0.00 | 0.00 | 0.00 | 58 | 1013.3 |
| 20260503042524 | 66 | 314 | 3.5 | 7.8 | 0.00 | 0.00 | 0.00 | 57 | 1013.3 |
| 20260503042036 | 66 | 290 | 4.3 | 10.4 | 0.00 | 0.00 | 0.00 | 57 | 1013.2 |
| 20260503041528 | 66 | 347 | 3.5 | 10.4 | 0.00 | 0.00 | 0.00 | 57 | 1013.1 |
| 20260503041038 | 65 | 269 | 5.2 | 8.7 | 0.00 | 0.00 | 0.00 | 57 | 1013.2 |
| 20260503040540 | 65 | 241 | 4.3 | 8.7 | 0.00 | 0.00 | 0.00 | 60 | 1013.2 |
| 20260503040031 | 65 | 258 | 3.5 | 7.0 | 0.00 | 0.00 | 0.00 | 59 | 1013.0 |
| 20260503035543 | 65 | 247 | 2.6 | 7.0 | 0.00 | 0.00 | 0.00 | 61 | 1013.0 |
| 20260503035026 | 65 | 249 | 2.6 | 5.2 | 0.00 | 0.00 | 0.00 | 63 | 1012.9 |
| 20260503034539 | 65 | 249 | 2.6 | 6.1 | 0.00 | 0.00 | 0.00 | 61 | 1012.9 |
| 20260503034050 | 65 | 276 | 3.5 | 6.1 | 0.00 | 0.00 | 0.00 | 61 | 1012.9 |
| 20260503033533 | 65 | 247 | 2.6 | 5.2 | 0.00 | 0.00 | 0.00 | 60 | 1012.8 |
| 20260503033045 | 66 | 232 | 2.6 | 5.2 | 0.00 | 0.00 | 0.00 | 60 | 1012.8 |
| 20260503032529 | 66 | 278 | 2.6 | 4.3 | 0.00 | 0.00 | 0.00 | 61 | 1012.7 |
| 20260503032041 | 66 | 271 | 1.7 | 4.3 | 0.00 | 0.00 | 0.00 | 60 | 1012.7 |
| 20260503031525 | 66 | 260 | 1.7 | 6.1 | 0.00 | 0.00 | 0.00 | 62 | 1012.8 |
| 20260503031037 | 66 | 290 | 3.5 | 6.1 | 0.00 | 0.00 | 0.00 | 61 | 1012.6 |
| 20260503030530 | 66 | 262 | 2.6 | 7.0 | 0.00 | 0.00 | 0.00 | 61 | 1012.7 |
| 20260503030033 | 66 | 265 | 2.6 | 7.0 | 0.00 | 0.00 | 0.00 | 61 | 1012.6 |
| 20260503025544 | 66 | 314 | 2.6 | 4.3 | 0.00 | 0.00 | 0.00 | 61 | 1012.5 |
| 20260503025048 | 66 | 277 | 1.7 | 6.1 | 0.00 | 0.00 | 0.00 | 63 | 1012.5 |
| 20260503024540 | 66 | 283 | 2.6 | 6.1 | 0.00 | 0.00 | 0.00 | 63 | 1012.5 |
| 20260503024051 | 65 | 281 | 2.6 | 3.5 | 0.00 | 0.00 | 0.00 | 66 | 1012.5 |
| 20260503023541 | 64 | 274 | 1.7 | 3.5 | 0.00 | 0.00 | 0.00 | 69 | 1012.5 |
| 20260503023023 | 64 | 289 | 2.6 | 5.2 | 0.00 | 0.00 | 0.00 | 72 | 1012.5 |
| 20260503022556 | 64 | 283 | 1.7 | 5.2 | 0.00 | 0.00 | 0.00 | 71 | 1012.5 |
| 20260503022026 | 64 | 285 | 1.7 | 7.0 | 0.00 | 0.00 | 0.00 | 71 | 1012.5 |
| 20260503021537 | 64 | 300 | 3.5 | 7.0 | 0.00 | 0.00 | 0.00 | 72 | 1012.6 |
| 20260503021036 | 64 | 302 | 3.5 | 7.0 | 0.00 | 0.00 | 0.00 | 73 | 1012.6 |
| 20260503020548 | 64 | 333 | 3.5 | 5.2 | 0.00 | 0.00 | 0.00 | 74 | 1012.6 |
| 20260503020031 | 64 | 297 | 2.6 | 5.2 | 0.00 | 0.00 | 0.00 | 74 | 1012.6 |
| 20260503015542 | 65 | 301 | 3.5 | 5.2 | 0.00 | 0.00 | 0.00 | 74 | 1012.6 |
| 20260503015037 | 65 | 309 | 3.5 | 5.2 | 0.00 | 0.00 | 0.00 | 72 | 1012.7 |
| 20260503014529 | 66 | 304 | 1.7 | 4.3 | 0.00 | 0.00 | 0.00 | 69 | 1012.7 |
| 20260503014040 | 66 | 276 | 1.7 | 6.1 | 0.00 | 0.00 | 0.00 | 67 | 1012.8 |
| 20260503013612 | 66 | 298 | 3.5 | 6.1 | 0.00 | 0.00 | 0.00 | 66 | 1012.9 |
| 20260503013033 | 66 | 284 | 2.6 | 7.8 | 0.00 | 0.00 | 0.00 | 66 | 1012.9 |
| 20260503012526 | 66 | 292 | 3.5 | 8.7 | 0.00 | 0.00 | 0.00 | 66 | 1012.9 |
| 20260503012030 | 66 | 317 | 5.2 | 8.7 | 0.00 | 0.00 | 0.00 | 69 | 1013.0 |
| 20260503011541 | 65 | 273 | 3.5 | 7.0 | 0.00 | 0.00 | 0.00 | 74 | 1013.0 |
| 20260503011031 | 66 | 290 | 5.2 | 7.0 | 0.00 | 0.00 | 0.00 | 73 | 1013.1 |
| 20260503010543 | 66 | 276 | 2.6 | 6.1 | 0.00 | 0.00 | 0.00 | 70 | 1013.0 |
| 20260503010045 | 66 | 298 | 3.5 | 7.8 | 0.00 | 0.00 | 0.00 | 73 | 1013.1 |
| 20260503005536 | 68 | 346 | 4.3 | 7.8 | 0.00 | 0.00 | 0.00 | 69 | 1013.1 |
| 20260503005029 | 69 | 307 | 4.3 | 7.8 | 0.00 | 0.00 | 0.00 | 62 | 1013.2 |
| 20260503004533 | 69 | 316 | 5.2 | 11.3 | 0.00 | 0.00 | 0.00 | 61 | 1013.1 |
| 20260503004025 | 69 | 310 | 6.1 | 11.3 | 0.00 | 0.00 | 0.00 | 60 | 1013.1 |
| 20260503003558 | 69 | 309 | 5.2 | 9.6 | 0.00 | 0.00 | 0.00 | 60 | 1013.1 |
| 20260503003049 | 69 | 297 | 5.2 | 9.6 | 0.00 | 0.00 | 0.00 | 61 | 1013.1 |
| 20260503002531 | 70 | 296 | 6.1 | 9.6 | 0.00 | 0.00 | 0.00 | 61 | 1013.0 |
| 20260503002059 | 69 | 320 | 5.2 | 10.4 | 0.00 | 0.00 | 0.00 | 61 | 1013.0 |
| 20260503001529 | 69 | 297 | 6.1 | 10.4 | 0.00 | 0.00 | 0.00 | 61 | 1013.0 |
| 20260503001032 | 70 | 304 | 4.3 | 7.8 | 0.00 | 0.00 | 0.00 | 61 | 1013.2 |
| 20260503000524 | 70 | 284 | 3.5 | 7.8 | 0.00 | 0.00 | 0.00 | 62 | 1013.1 |
| 20260503000037 | 69 | 318 | 5.2 | 7.8 | 0.00 | 0.00 | 0.00 | 62 | 1013.3 |
| 20260502235540 | 69 | 304 | 3.5 | 7.8 | 0.00 | 0.00 | 0.00 | 62 | 1013.3 |
| 20260502235030 | 69 | 299 | 4.3 | 8.7 | 0.00 | 0.00 | 0.00 | 62 | 1013.4 |
| 20260502234541 | 70 | 305 | 5.2 | 8.7 | 0.00 | 0.00 | 0.00 | 62 | 1013.3 |
| 20260502234037 | 70 | 278 | 3.5 | 7.0 | 0.00 | 0.00 | 0.00 | 63 | 1013.4 |
| 20260502233530 | 70 | 315 | 4.3 | 7.8 | 0.00 | 0.00 | 0.00 | 62 | 1013.5 |
| 20260502233041 | 70 | 328 | 4.3 | 7.8 | 0.00 | 0.00 | 0.00 | 62 | 1013.5 |
| 20260502232554 | 70 | 314 | 4.3 | 7.8 | 0.00 | 0.00 | 0.00 | 61 | 1013.7 |
| 20260502232043 | 70 | 290 | 3.5 | 9.6 | 0.00 | 0.00 | 0.00 | 62 | 1013.8 |
| 20260502231526 | 70 | 318 | 2.6 | 9.6 | 0.00 | 0.00 | 0.00 | 63 | 1013.9 |
| 20260502231038 | 70 | 323 | 4.3 | 8.7 | 0.00 | 0.00 | 0.00 | 64 | 1013.9 |
| 20260502230549 | 70 | 358 | 5.2 | 8.7 | 0.00 | 0.00 | 0.00 | 64 | 1013.9 |
| 20260502230025 | 70 | 281 | 5.2 | 9.6 | 0.00 | 0.00 | 0.00 | 63 | 1013.9 |
| 20260502225606 | 70 | 342 | 6.1 | 9.6 | 0.00 | 0.00 | 0.00 | 61 | 1014.0 |
| 20260502225028 | 70 | 335 | 5.2 | 9.6 | 0.00 | 0.00 | 0.00 | 63 | 1014.1 |
| 20260502224540 | 70 | 328 | 7.0 | 9.6 | 0.00 | 0.00 | 0.00 | 63 | 1014.2 |
| 20260502224023 | 69 | 325 | 7.0 | 10.4 | 0.00 | 0.00 | 0.00 | 63 | 1014.3 |
| 20260502223556 | 69 | 311 | 7.8 | 11.3 | 0.00 | 0.00 | 0.00 | 64 | 1014.3 |
| 20260502223026 | 70 | 324 | 7.8 | 11.3 | 0.00 | 0.00 | 0.00 | 63 | 1014.4 |
| 20260502222538 | 69 | 324 | 7.0 | 10.4 | 0.00 | 0.00 | 0.00 | 65 | 1014.4 |
| 20260502222038 | 69 | 350 | 7.8 | 9.6 | 0.00 | 0.00 | 0.00 | 66 | 1014.5 |
| 20260502221550 | 68 | 339 | 7.0 | 11.3 | 0.00 | 0.00 | 0.00 | 67 | 1014.6 |
| 20260502221040 | 68 | 305 | 8.7 | 11.3 | 0.00 | 0.00 | 0.00 | 66 | 1014.7 |
| 20260502220523 | 68 | 323 | 7.8 | 11.3 | 0.00 | 0.00 | 0.00 | 66 | 1014.6 |
| 20260502220035 | 68 | 335 | 8.7 | 11.3 | 0.00 | 0.00 | 0.00 | 66 | 1014.7 |
| 20260502215548 | 68 | 337 | 7.0 | 9.6 | 0.00 | 0.00 | 0.00 | 67 | 1014.8 |
| 20260502215055 | 68 | 340 | 7.0 | 9.6 | 0.00 | 0.00 | 0.00 | 67 | 1014.9 |
| 20260502214542 | 68 | 336 | 6.1 | 8.7 | 0.00 | 0.00 | 0.00 | 69 | 1014.9 |
| 20260502214050 | 68 | 337 | 7.0 | 10.4 | 0.00 | 0.00 | 0.00 | 67 | 1015.0 |
| 20260502213531 | 67 | 340 | 7.0 | 10.4 | 0.00 | 0.00 | 0.00 | 68 | 1015.0 |
| 20260502213044 | 67 | 328 | 7.8 | 9.6 | 0.00 | 0.00 | 0.00 | 68 | 1015.1 |
| 20260502212528 | 67 | 321 | 7.0 | 10.4 | 0.00 | 0.00 | 0.00 | 69 | 1015.3 |